Lapse_Rate
3.0 3.4 3.1 3.4 2.9 2.3 2.5 3.0 2.1 3.8 3.5 3.9 4.0 3.8 3.8 3.6 3.6 3.9 4.0 3.9 4.0 4.0 3.9 4.0 4.4 4.7 4.4 4.4 4.3 4.6 4.9 4.8 4.7 5.2 5.8 5.9 5.6 5.5 5.3 5.0 5.3 5.1 4.7 5.3
3.4 3.6 3.1 3.0 3.4 2.5 2.7 3.1 2.9 3.4 3.6 3.5 3.5 3.4 3.6 3.6 3.5 3.5 3.7 3.8 3.7 3.9 3.9 4.0 4.1 4.8 4.7 4.5 4.3 4.4 4.6 4.7 4.8 4.7 5.4 6.0 6.5 5.8 5.8 5.2 5.1 5.3 5.1 4.9
1.8 2.3 2.6 2.9 4.6 4.2 4.1 3.9 3.7 3.4 3.6 3.1 3.4 3.4 3.2 3.7 3.4 3.3 3.5 3.6 3.6 3.7 3.9 4.0 4.1 4.3 4.8 4.7 4.6 4.3 4.3 4.6 4.5 5.0 5.0 5.3 5.7 6.2 6.1 5.5 5.3 5.2 5.4 4.8
1.6 2.2 1.3 3.8 3.7 3.9 4.0 3.7 3.6 3.6 3.1 2.8 2.9 3.2 3.2 3.4 3.2 3.3 3.2 3.4 3.5 3.4 3.7 3.8 3.9 4.0 4.4 4.6 4.6 4.7 4.7 4.3 4.2 4.6 5.1 5.4 5.6 5.7 5.7 5.2 5.8 5.2 5.1 5.2
1.0 0.9 3.2 4.1 4.2 3.6 3.3 3.8 3.4 2.9 2.8 2.5 2.6 2.8 2.8 3.0 2.9 3.0 3.2 3.1 3.3 3.5 3.4 3.6 3.8 3.8 4.0 4.3 4.4 4.7 5.0 4.6 4.1 4.0 4.6 4.8 5.2 5.1 5.2 5.6 5.5 5.1 5.2 5.3
0.6 0.8 1.8 3.6 3.7 3.5 2.9 3.3 3.1 3.1 3.0 2.9 2.7 2.7 2.7 2.9 2.8 2.8 2.9 3.1 3.0 3.1 3.3 3.3 3.5 3.7 3.8 4.0 4.1 4.4 4.3 4.8 4.4 4.0 4.3 4.6 5.2 5.4 5.6 5.5 5.3 5.7 5.4 5.3
1.2 0.9 3.4 4.5 4.2 3.5 3.3 3.5 3.2 3.1 3.1 2.9 2.8 2.7 2.5 2.7 2.5 2.6 2.8 2.9 3.0 2.9 3.0 3.2 3.3 3.4 3.5 3.7 3.6 4.0 4.2 3.9 4.6 4.2 4.0 4.2 4.9 5.5 5.3 5.3 5.5 6.0 6.0 5.8
1.7 1.0 1.8 4.3 3.7 3.6 3.7 3.6 3.4 3.2 3.1 3.0 2.8 2.8 2.6 2.5 2.5 2.5 2.5 2.6 2.8 2.9 2.9 2.9 3.0 3.2 3.2 3.3 3.4 3.7 3.7 4.0 4.1 4.0 3.6 3.9 4.6 5.4 5.3 5.5 5.4 5.6 6.0 5.3
3.5 4.7 4.9 4.5 4.2 3.9 3.8 3.6 3.4 3.3 3.1 2.9 2.8 2.8 2.6 2.5 2.4 2.3 2.4 2.3 2.5 2.7 2.8 2.8 2.9 2.9 3.1 3.0 3.1 3.0 3.5 3.7 3.5 3.7 3.4 3.6 3.9 4.6 5.1 5.3 5.3 5.3 5.3 5.0
3.6 4.9 4.7 4.4 4.4 4.0 3.8 3.6 3.4 3.1 3.0 2.9 2.8 2.6 2.6 2.4 2.3 2.2 2.2 2.2 2.3 2.4 2.6 2.7 2.7 2.8 2.8 3.0 2.8 3.0 2.8 3.3 3.3 3.2 3.5 3.7 4.0 4.1 4.5 4.6 4.7 5.1 5.1 4.9
5.0 4.9 4.8 4.7 4.6 4.4 4.1 3.7 3.4 3.2 3.0 2.9 2.9 2.6 2.7 2.4 2.2 2.1 2.0 2.1 2.1 2.3 2.5 2.6 2.7 2.7 2.7 2.7 2.9 3.0 3.0 2.8 2.8 3.1 2.9 3.2 3.6 3.7 3.5 3.9 4.2 4.0 4.5 4.4
5.0 4.8 4.6 4.5 4.2 4.1 3.9 3.6 3.4 3.2 3.1 2.8 2.8 2.6 2.5 2.4 2.2 2.1 1.9 2.1 2.1 2.3 2.3 2.4 2.7 2.7 2.8 2.8 2.7 2.9 3.0 2.9 2.9 2.8 3.1 3.0 3.2 3.3 3.7 3.4 3.6 4.1 3.9 4.0
5.0 4.8 4.5 4.1 4.2 4.0 3.8 3.5 3.2 3.2 3.1 3.0 2.8 2.8 2.4 2.3 2.2 2.1 1.9 2.0 2.0 2.2 2.6 2.6 2.8 2.9 2.9 2.9 2.9 3.0 3.0 3.0 2.8 3.0 2.8 2.6 2.7 3.0 3.2 3.2 3.4 3.1 3.4 3.7
4.3 4.4 4.7 4.3 4.3 4.1 3.7 3.6 3.4 3.3 3.1 3.0 2.8 2.8 2.4 2.3 2.1 2.0 1.8 2.0 2.1 2.2 2.5 2.9 3.1 3.1 3.1 3.1 3.1 3.0 3.2 3.1 3.0 2.9 2.9 2.5 2.4 2.4 2.6 3.2 3.2 2.9 3.2 3.1
4.3 4.1 4.3 4.5 4.4 4.1 3.9 3.7 3.8 3.4 3.1 3.1 2.9 2.8 2.4 2.4 2.2 2.0 1.9 2.0 2.1 2.3 2.6 3.1 3.4 3.3 3.6 3.5 3.2 3.2 3.2 3.3 3.2 3.0 3.0 3.0 2.7 2.4 2.3 2.4 2.7 2.9 2.9 2.9
4.5 4.3 4.3 4.3 4.2 3.9 3.9 3.8 3.7 3.4 3.3 3.2 3.1 2.8 2.6 2.4 2.2 2.0 1.9 2.0 2.1 2.5 2.8 3.2 3.5 3.7 3.9 3.8 3.6 3.6 3.6 3.4 3.3 3.3 3.0 3.0 3.0 3.0 2.7 2.5 2.4 2.2 2.5 2.8
4.5 4.3 4.1 4.4 4.1 4.0 4.0 3.9 3.6 3.4 3.3 3.2 3.2 2.9 2.7 2.3 2.2 2.0 2.0 2.0 2.2 2.6 3.0 3.4 3.7 4.0 4.1 3.9 3.8 3.8 3.8 3.7 3.7 3.5 3.3 3.1 3.0 2.9 3.1 3.1 2.9 2.6 2.4 2.3
4.2 4.2 4.0 3.8 3.7 3.9 3.9 3.7 3.6 3.5 3.3 3.3 3.1 2.9 2.7 2.3 2.1 2.0 2.1 2.1 2.3 2.8 3.1 3.6 3.9 4.2 4.3 4.1 4.0 4.0 3.9 3.8 3.8 3.7 3.7 3.5 3.4 3.2 3.1 3.0 3.2 3.2 2.9 2.8
4.5 4.4 4.2 4.0 3.8 3.9 3.9 3.8 3.5 3.4 3.4 3.3 3.1 3.0 2.6 2.3 2.1 2.0 2.0 2.2 2.5 2.9 3.3 3.7 4.2 4.4 4.4 4.3 4.3 4.3 4.2 4.1 4.1 4.0 3.9 3.7 3.6 3.6 3.5 3.4 3.3 3.4 3.5 3.3
4.5 4.3 4.2 4.1 4.0 3.9 3.9 3.7 3.5 3.4 3.4 3.2 3.1 2.9 2.5 2.2 2.0 2.0 2.0 2.3 2.6 3.0 3.6 4.0 4.4 4.6 4.6 4.5 4.5 4.5 4.5 4.3 4.3 4.2 4.2 4.1 4.0 3.9 3.8 3.8 3.7 3.6 3.6 3.6
4.3 4.3 4.3 4.2 4.2 4.0 3.7 3.6 3.4 3.4 3.2 3.1 3.0 2.7 2.4 2.2 1.9 2.0 2.2 2.5 2.9 3.2 3.7 4.2 4.5 4.8 4.8 4.7 4.8 4.9 4.8 4.7 4.7 4.6 4.6 4.5 4.6 4.5 4.4 4.2 4.0 3.9 3.6 3.6
4.4 4.4 4.3 4.2 4.2 3.9 3.6 3.3 3.3 3.3 3.1 2.9 2.9 2.5 2.2 2.1 2.0 2.2 2.4 2.7 3.2 3.5 3.9 4.3 4.7 4.9 5.0 5.1 5.2 5.3 5.4 5.4 5.2 5.1 5.1 5.0 4.9 4.9 4.8 4.7 4.6 4.4 4.3 4.1
4.4 4.3 4.2 4.2 4.1 4.0 3.5 3.3 3.3 3.2 2.9 2.8 2.7 2.4 2.1 2.1 2.2 2.5 2.8 3.0 3.5 3.9 4.3 4.5 4.8 5.0 5.1 5.4 5.5 5.5 5.5 5.5 5.5 5.5 5.5 5.4 5.4 5.3 5.2 5.1 5.0 4.8 4.7 4.6
4.2 4.1 4.1 4.2 4.1 3.9 3.5 3.3 3.1 3.0 2.8 2.7 2.5 2.3 2.1 2.3 2.5 2.7 3.1 3.5 3.8 4.3 4.6 4.8 5.0 5.1 5.5 5.4 5.4 5.4 5.4 5.5 5.6 5.6 5.6 5.5 5.5 5.4 5.4 5.3 5.2 5.1 5.0 4.8
4.1 4.1 4.1 4.1 3.9 3.6 3.4 3.3 3.0 2.8 2.8 2.4 2.3 2.3 2.3 2.7 2.9 3.1 3.5 3.8 4.3 4.7 4.9 5.1 5.2 5.2 5.4 5.4 5.4 5.4 5.4 5.3 5.3 5.2 5.2 5.3 5.2 5.2 5.1 5.1 5.1 5.0 5.0 5.0
4.0 4.1 4.1 3.9 3.7 3.4 3.3 3.0 2.8 2.8 2.4 2.2 2.3 2.4 2.7 2.9 3.2 3.6 3.9 4.2 4.6 5.0 5.1 5.2 5.2 5.2 5.2 5.3 5.3 5.2 5.2 5.2 5.1 5.0 5.0 5.0 4.9 4.9 4.9 4.8 4.8 4.9 4.7 4.7
4.1 4.0 3.9 3.7 3.5 3.3 3.0 2.9 2.8 2.4 2.2 2.3 2.5 2.8 3.0 3.2 3.6 3.9 4.2 4.6 4.9 5.0 5.0 5.0 5.0 5.1 5.1 5.1 5.1 5.2 5.2 5.2 5.1 5.0 4.9 4.8 4.7 4.7 4.8 4.7 4.6 4.6 4.6 4.6
Wind_Speed
11 17 16 16 12 12 9 6 5 6 5 21 17 10 7 5 6 8 7 9 6 5 5 5 5 7 10 10 11 14 14 14 15 15 14 14 14 13 10 7 8 10 6 11
6 11 5 11 10 9 15 4 11 14 17 16 12 5 6 6 4 7 9 9 9 8 8 7 5 6 9 9 9 11 13 13 14 15 14 14 14 13 11 9 7 9 12 3
5 7 13 10 8 13 6 5 7 6 11 3 5 5 5 4 3 5 5 6 7 7 7 7 6 5 8 7 6 9 12 13 14 15 14 14 13 13 13 11 10 10 10 12
5 8 2 5 4 2 10 6 12 8 9 7 8 6 4 4 3 4 4 4 5 4 7 6 6 6 7 7 6 8 11 12 13 13 13 13 13 13 13 10 11 9 8 12
1 3 10 1 3 4 5 7 9 14 13 8 2 3 6 3 5 3 3 4 4 3 5 6 6 6 7 7 7 10 10 12 12 12 13 13 14 13 11 10 10 10 9 10
1 2 5 3 5 4 6 4 6 7 6 4 5 1 4 5 5 5 4 3 4 4 4 6 6 6 7 6 8 10 11 10 10 11 12 13 12 12 9 8 8 7 11 11
6 5 8 4 8 5 4 4 5 6 6 5 4 5 4 7 4 4 4 4 3 4 5 5 4 5 6 6 7 8 11 9 9 10 10 11 11 10 10 8 8 10 10 10
4 4 9 8 5 5 5 1 3 4 5 4 5 4 4 5 6 5 5 3 3 3 4 5 3 3 6 6 5 7 9 8 9 9 6 7 10 9 10 9 10 10 11 10
8 6 2 10 6 6 3 4 3 3 3 2 4 4 5 5 5 5 5 3 2 3 4 4 4 1 4 5 5 6 7 7 8 7 7 7 8 9 7 9 8 8 8 8
3 5 10 14 12 5 6 7 4 3 4 2 5 4 6 5 4 4 4 4 3 4 5 5 4 3 3 4 5 6 6 6 6 6 7 7 5 6 6 7 7 7 7 7
6 17 16 12 11 5 6 4 3 3 6 7 5 6 5 4 4 4 4 2 2 3 4 5 4 4 3 4 5 5 6 5 5 5 5 5 6 3 4 4 8 5 6 6
8 5 5 5 2 2 1 5 6 5 4 4 6 8 4 6 4 4 4 2 2 4 4 4 3 3 3 3 4 4 5 5 4 3 4 6 5 5 11 10 12 14 14 11
5 3 3 5 7 5 5 6 4 5 6 5 5 5 4 4 4 6 4 4 4 6 5 4 3 4 3 2 2 4 4 4 4 5 4 4 5 5 5 6 11 12 13 15
2 3 10 6 6 2 4 4 4 3 4 6 4 4 4 5 3 3 5 5 5 4 5 5 5 7 5 3 3 3 3 7 2 3 3 3 3 4 4 5 5 5 10 11
9 9 12 1 1 5 4 2 4 8 6 6 6 7 6 6 6 7 4 5 4 4 5 5 6 8 5 4 4 4 3 3 2 1 1 2 3 3 3 4 5 4 4 8
1 6 7 10 12 7 7 7 8 10 6 8 8 9 9 7 5 5 4 5 4 5 6 6 7 6 6 5 5 3 3 9 5 2 1 1 2 2 2 3 3 4 4 4
3 7 4 7 9 9 10 8 10 8 6 8 9 7 7 7 5 5 6 6 6 6 6 5 7 5 5 6 6 4 3 4 7 2 2 1 1 1 1 2 2 2 3 5
12 14 12 8 8 7 6 6 7 8 8 7 6 6 7 8 6 6 6 5 4 3 5 7 6 5 5 6 6 4 3 3 2 3 2 2 2 2 2 2 1 1 2 3
11 14 12 11 10 8 6 6 5 6 6 6 6 6 6 6 5 4 4 4 3 3 5 5 10 8 5 8 8 3 3 3 3 2 2 4 1 1 2 2 2 1 2 2
11 8 9 11 6 6 6 5 6 4 5 5 6 6 6 5 5 4 4 4 4 3 1 2 1 3 5 7 11 5 3 3 3 3 3 3 3 3 3 6 3 3 2 2
10 9 10 9 6 5 5 4 3 4 4 6 6 6 6 5 5 4 2 1 1 1 2 3 2 2 3 6 6 3 5 5 5 4 4 2 3 2 3 3 4 3 2 2
9 8 5 4 4 3 4 3 4 5 6 6 6 6 6 5 4 3 2 2 1 0 0 1 0 1 3 5 2 2 2 3 3 3 3 3 3 3 3 3 3 2 2 3
6 3 3 3 3 3 4 4 4 6 6 6 6 6 4 3 3 3 1 2 2 2 1 1 4 5 8 1 2 3 3 4 4 4 4 4 4 4 4 3 3 3 3 3
2 3 2 3 4 4 5 4 5 5 5 5 6 5 5 3 1 2 2 0 1 2 1 1 3 6 9 3 3 2 2 2 2 2 1 8 3 3 4 4 4 3 3 6
2 3 3 3 4 3 6 6 6 5 6 5 5 5 5 3 3 3 3 2 2 2 2 5 6 7 2 2 2 1 2 2 2 2 2 2 2 2 3 3 4 4 4 3
3 2 2 3 3 4 5 5 5 4 4 4 3 3 3 3 2 3 2 1 0 2 3 2 1 2 2 2 2 1 2 2 3 3 5 2 2 3 3 3 3 2 1 2
3 6 3 2 2 4 4 4 5 4 5 4 4 3 3 3 2 3 2 2 2 2 2 2 1 3 2 2 2 2 2 2 6 3 4 4 3 4 4 4 3 3 3 3
Wind_Direction
261 275 278 269 251 177 193 203 178 254 295 289 296 291 279 272 287 308 332 342 348 345 339 330 333 337 349 348 353 348 340 351 354 349 344 344 349 345 339 8 7 351 352 204
281 264 221 266 251 197 205 214 258 263 278 272 276 260 292 277 322 330 329 333 341 347 352 345 336 338 345 341 347 357 344 350 351 349 347 351 347 343 353 21 29 21 8 22
267 340 307 281 251 209 199 171 163 186 231 234 300 277 274 274 269 289 309 320 337 346 346 337 339 351 339 331 339 5 351 351 357 350 348 352 348 356 4 359 25 36 35 32
283 313 317 228 143 82 209 205 204 257 263 259 248 251 252 236 207 273 284 306 318 317 317 326 332 356 332 335 353 359 358 357 358 350 346 351 354 3 9 356 29 41 28 52
266 288 283 281 179 153 157 275 208 221 250 247 190 50 309 218 166 197 239 252 249 249 309 328 342 353 334 345 359 357 357 0 2 348 347 353 3 4 7 12 20 41 40 28
277 270 262 215 148 78 85 285 207 201 237 275 163 2 256 178 181 219 233 288 311 307 316 328 346 353 334 343 3 355 348 355 356 358 352 356 355 2 9 17 10 38 55 32
225 259 281 192 144 130 69 241 181 194 223 246 208 207 201 165 184 198 213 244 286 319 309 307 350 353 332 343 3 345 338 345 358 4 3 350 351 8 12 19 16 32 48 40
201 239 269 135 84 165 204 39 156 194 227 242 253 270 287 223 196 204 231 257 246 264 292 302 316 350 326 341 347 338 332 345 356 359 2 3 359 6 13 16 25 18 45 41
192 226 214 196 197 218 155 166 227 172 251 202 240 234 261 263 217 199 201 234 224 228 278 299 295 265 318 314 342 339 332 341 349 350 359 3 22 8 12 14 24 22 35 34
39 281 239 225 239 209 189 209 212 211 203 201 235 240 260 272 216 171 193 210 223 227 259 276 287 280 287 323 346 341 332 331 344 357 3 358 29 31 29 9 15 30 29 31
264 278 283 268 251 233 228 216 218 211 203 223 219 247 235 247 221 191 193 205 194 220 239 264 301 315 328 337 351 334 326 321 356 3 347 356 1 42 45 10 33 23 35 33
226 223 190 248 280 324 150 227 231 198 252 228 201 236 219 242 222 194 199 197 207 223 229 256 276 280 289 318 330 321 320 342 334 359 357 2 2 360 19 35 36 33 32 40
241 172 207 245 252 216 218 232 228 206 217 241 244 220 211 225 214 226 216 203 210 228 241 253 260 265 263 266 271 289 299 316 345 2 1 354 5 8 6 5 22 26 29 24
224 68 288 204 247 212 200 235 292 247 231 233 226 228 204 220 264 215 213 217 212 219 238 240 246 250 236 227 209 257 299 289 290 319 354 352 5 356 1 5 7 8 12 16
238 204 243 222 265 244 205 170 247 252 239 233 212 224 198 214 223 230 229 217 206 212 244 240 244 253 218 201 203 204 230 253 232 291 273 338 354 352 357 9 5 358 7 14
154 218 237 241 264 259 214 222 237 261 234 240 223 215 214 212 216 218 215 183 165 229 240 228 239 243 211 191 198 201 221 240 225 232 165 19 7 359 3 10 7 1 3 1
303 287 233 250 244 248 226 227 220 239 235 226 228 212 181 191 203 220 225 211 208 229 235 230 242 226 210 187 190 211 205 217 210 207 188 172 110 346 9 342 342 351 337 334
236 255 259 254 264 259 252 231 221 221 227 227 211 187 175 178 196 206 215 204 197 235 232 234 226 220 203 189 191 212 210 183 178 184 195 152 221 219 234 232 265 307 308 329
234 245 249 242 240 240 242 244 243 244 208 194 188 187 177 182 190 188 160 146 187 238 273 215 235 220 195 208 198 203 203 178 187 190 184 233 275 236 251 240 241 249 281 290
258 239 247 256 227 221 234 234 242 232 192 165 165 159 171 172 158 157 173 211 228 204 178 176 220 206 183 213 223 184 202 190 196 200 194 208 213 225 241 272 268 224 253 263
274 259 245 239 221 213 223 214 194 175 178 159 153 161 163 164 148 145 150 214 243 121 221 257 220 212 192 200 220 171 191 197 200 203 208 215 233 237 219 224 236 218 233 247
284 269 229 189 204 214 211 183 161 161 151 150 152 141 132 136 139 152 198 175 91 221 331 263 95 247 221 244 154 192 197 164 183 192 205 213 214 216 229 231 229 224 223 227
269 197 203 189 196 192 149 151 159 150 145 146 138 136 143 138 151 152 220 205 156 258 211 266 242 259 259 253 187 208 217 210 209 210 208 206 208 207 211 216 224 219 223 225
166 167 137 109 121 129 140 146 136 127 127 119 118 123 126 120 106 91 66 7 281 348 89 269 287 292 76 50 56 44 21 14 4 350 267 242 212 209 212 213 219 210 214 257
129 115 128 154 176 167 140 131 115 110 113 108 107 109 107 71 103 109 86 51 356 31 11 324 317 351 41 0 349 348 323 314 289 254 260 247 259 246 239 218 220 208 211 210
158 163 161 188 164 139 136 140 139 142 136 133 124 124 112 103 97 106 120 179 231 358 43 5 315 295 356 345 303 303 280 278 292 306 288 269 278 267 249 236 218 224 210 210
122 137 131 113 100 123 136 142 136 151 145 138 129 127 118 115 141 121 96 60 39 18 355 341 357 317 284 274 316 324 320 299 297 260 237 256 257 254 250 244 235 226 214 211